Погода в Поселке имени Морозова

Россия / Санкт-Петербург и Ленинградская область     59°58′28″N   31°02′05″E
темп.,
°C
ветер,
м/с
пор.,
м/с
влажн.,
%
обл.,
%
осадки,
мм/ч
давл.,
гПа
погр.,
м
31 июля, сб
сб3100:00+15ююз311695 0.0 997320
03:00+14ююв3117498 0.0 995344
06:00+15ююз51184100 0.2 994970
09:00+16юз5108495 1.2 994894
12:00+17зюз7128536 2.3 9951061
15:00+20з7115921 2.8 9981304
18:00+21з611550 0.0 9991199
21:00+17зюз257041 0.0 100190
1 августа, вс
вс100:00+17юз256869 0.0 1002127
03:00+14юз38957 0.0 1002209
06:00+15ююз3996100 0.0 1002303
09:00+16ю3691100 0.6 1002318
12:00+19ююз588288 1.1 1002715
15:00+22юз496419 2.7 10011475
18:00+21юз5116113 0.7 10011027
21:00+18зюз5127717 0.8 1002788
2 августа, пн
пн200:00+16юз41190100 0.0 1003514
03:00+14юз410968 0.0 1004358
06:00+13юз399293 0.0 1005305
09:00+18юз4763100 0.0 1005793
12:00+22юз2452100 0.0 10041458
15:00+21юв1366100 0.3 1002207
18:00+16ююз2597100 3.8 1002240
21:00+15зсз1198100 5.8 100050
3 августа, вт
вт300:00+15з1298100 1.3 99969
03:00+15зсз2497100 1.5 999113
06:00+14зюз369833 1.1 1000200
09:00+17зюз48875 2.0 1000666
12:00+21зюз575016 0.1 10011578
15:00+20з695539 0.3 10031458
18:00+18з610620 0.0 10051230
21:00+14з498222 0.0 1006534
4 августа, ср
ср400:00+13з3889100 0.2 1008307
03:00+13з2781100 0.2 1010210
06:00+13сз1271100 0.0 101170
09:00+14зсз0164100 0.0 1013104
12:00+20ссз134024 0.0 10141768
15:00+19в234491 0.0 10151213
18:00+20ссз123932 0.0 1015956
21:00+14св116523 0.0 101612